Location: Mount Cross
(36.6390°N, 79.4878°W)
Time: 00:16:35
(UTC+00:00)

SR - Pass Details

Date: 02 April 2023
Orbit: 580 x 867 km, 66.7° (Epoch: 08 June)

Event Time Altitude Azimuth Distance (km) Brightness Sun altitude
Rises 06:19:48 0° 241° (WSW) 2,986 - -46.3°
Reaches altitude 10° 06:22:39 10° 257° (WSW) 2,028 - -46.1°
Maximum altitude 06:26:04 21° 306° (NW) 1,408 - -45.9°
Drops below altitude 10° 06:29:22 10° 356° (N) 1,943 - -45.6°
Exits shadow 06:31:35 - 11° (N) 2,661 ? -45.4°
Sets 06:32:03 0° 13° (NNE) 2,824 ? -45.4°
